Wind_Speed
42 42 41 40 37 35 31 27 22 18 17 17 20 20 20 20 19 18 16 17 19 19 19 17 17 19 17 23 29 31 29 28 26 20 17 16 14 11 5 4 7 7 11 11 10
33 31 34 35 31 27 24 22 19 18 17 17 19 20 21 20 19 15 17 18 18 18 19 18 17 19 19 21 28 34 31 28 28 27 23 19 17 11 8 4 5 4 6 8 7
27 26 21 19 20 21 20 19 19 20 18 17 19 19 20 21 20 17 18 17 17 18 19 19 18 20 21 24 26 32 34 31 31 32 28 24 21 13 10 2 5 9 9 6 4
24 22 21 19 18 18 19 20 21 20 16 15 17 19 20 20 21 18 17 15 14 16 19 20 21 21 22 24 25 26 35 34 34 34 33 28 28 20 12 4 7 10 13 13 14
18 19 18 19 18 17 20 20 19 17 14 14 15 18 20 20 21 21 18 17 14 15 18 21 23 23 23 25 26 26 34 37 37 38 37 32 28 26 21 13 13 13 16 22 20
19 18 19 19 18 17 17 17 17 17 15 16 16 20 19 22 22 22 19 18 16 14 17 22 24 24 25 26 28 29 31 40 40 43 40 39 35 31 29 25 23 12 13 18 22
19 18 20 19 18 16 16 17 17 18 18 18 19 21 22 21 24 22 19 20 18 17 17 18 22 24 24 26 28 29 30 33 39 43 46 44 39 35 29 27 20 17 14 16 18
19 20 20 18 18 17 17 17 17 19 20 21 22 22 23 25 24 23 24 24 24 22 21 18 18 21 24 24 26 29 29 30 33 39 45 43 36 31 26 21 20 22 19 15 14
20 20 18 17 18 18 17 16 16 17 20 22 23 24 24 25 25 26 28 26 27 27 26 23 20 21 23 24 25 27 30 33 34 36 40 40 36 34 29 24 23 22 17 16 13
20 19 18 17 16 16 15 15 16 18 20 21 22 22 22 23 25 28 28 27 28 30 30 27 23 24 26 27 26 29 31 33 34 34 36 40 41 40 35 31 24 20 16 13 15
16 17 17 17 15 14 13 14 16 17 20 18 20 21 21 23 26 25 27 27 27 28 29 30 26 24 27 31 32 33 34 33 32 35 37 37 42 44 43 41 35 22 21 17 17
18 19 20 20 19 20 20 21 22 22 24 24 24 24 22 23 25 26 28 28 28 28 30 31 26 25 29 33 36 37 38 36 34 35 37 40 43 45 46 42 35 29 28 24 20
22 23 24 24 25 25 25 26 27 27 28 29 28 26 26 26 29 29 26 27 30 31 32 34 28 33 34 37 38 38 40 38 37 38 42 41 44 43 43 41 39 35 34 29 26
13 14 13 15 15 15 15 15 15 17 20 25 28 28 29 31 30 30 32 30 27 29 35 32 31 36 38 37 37 38 39 38 41 44 46 46 51 46 43 43 40 38 35 24 27
16 17 16 18 18 19 18 19 20 20 20 22 22 23 24 26 28 30 31 32 32 34 36 30 31 37 41 38 38 39 38 42 46 50 52 53 56 51 48 46 39 37 31 28 25
13 12 14 17 18 19 18 21 22 21 22 23 22 24 25 26 27 28 28 30 32 34 36 25 29 34 34 36 38 39 38 44 48 52 58 55 58 57 52 47 42 41 36 30 28
9 9 11 13 15 16 16 18 19 19 21 22 25 25 26 26 27 27 26 25 25 27 27 26 29 33 35 36 36 39 38 42 49 53 58 55 59 61 52 49 41 36 33 33 33
11 10 11 13 14 15 16 18 20 19 21 21 24 27 27 27 28 26 28 29 31 33 32 32 26 27 29 35 34 39 42 42 49 51 52 53 59 57 51 47 44 39 37 39 38
11 10 10 10 10 11 13 14 15 16 17 17 22 26 30 29 30 30 32 32 34 36 36 35 32 30 31 31 32 35 44 49 49 50 53 56 59 58 55 51 45 39 40 41 38
11 11 11 11 11 13 15 15 18 18 18 18 16 20 26 30 33 37 36 37 36 39 40 47 49 43 39 38 37 37 38 42 47 54 56 57 57 55 52 49 45 39 35 37 38
11 10 10 12 14 17 21 24 26 27 28 29 29 29 29 30 31 35 40 44 48 48 48 48 50 48 45 42 42 43 44 43 44 47 54 61 61 59 56 53 50 48 46 44 43
11 13 17 18 21 24 26 28 30 31 36 38 38 38 37 37 39 39 42 41 44 45 43 41 48 51 47 44 45 49 53 50 50 47 48 58 57 58 61 56 55 51 51 51 51
12 15 18 21 24 26 30 34 35 35 32 33 35 35 36 31 33 36 38 45 51 51 51 50 48 48 48 45 42 43 46 46 48 53 57 51 45 56 56 57 51 51 51 51 54
17 18 20 23 26 31 36 39 38 37 35 35 36 37 38 41 47 52 54 55 51 57 51 42 51 51 51 48 42 39 41 43 45 43 37 43 46 46 49 46 51 52 47 39 30
21 22 24 27 31 36 41 45 41 34 33 33 33 35 39 44 46 48 53 56 48 50 55 54 46 34 45 48 45 43 40 36 38 41 41 39 40 37 34 36 42 43 49 38 35
21 22 24 29 33 39 43 45 34 30 31 27 27 32 39 40 41 39 36 35 30 26 35 44 49 55 54 45 36 35 37 36 33 32 34 37 36 34 34 32 32 32 28 29 29
22 24 25 28 33 39 41 39 33 32 27 26 29 31 32 33 33 33 34 29 26 20 19 26 36 41 39 39 43 44 41 39 39 37 34 34 38 38 35 34 33 32 31 31 33
Wind_Direction
271 274 277 276 275 274 271 272 271 267 260 244 237 244 247 251 249 259 268 273 264 248 246 249 247 245 244 233 231 225 227 236 240 235 228 235 246 281 319 267 338 32 145 144 184
269 276 279 276 269 267 264 264 263 258 248 246 243 247 246 242 246 254 260 271 264 249 242 245 239 239 237 231 231 227 229 240 246 251 249 253 253 270 294 338 53 93 163 149 191
271 274 273 272 259 258 260 259 259 255 249 244 244 244 242 237 245 256 259 269 262 249 238 240 238 238 233 232 230 229 227 239 241 248 250 252 260 257 300 232 173 165 161 153 251
266 263 264 263 254 256 259 261 261 255 243 243 243 234 235 236 242 261 256 264 263 248 239 233 232 236 235 237 236 231 224 235 240 244 251 253 261 258 287 264 221 202 201 210 221
258 256 257 255 255 256 262 262 257 244 238 242 240 233 237 227 240 257 251 251 258 251 239 236 233 231 234 236 234 226 222 229 237 242 248 253 258 259 262 279 301 237 233 228 237
253 252 255 255 256 257 260 260 249 239 240 244 243 242 239 238 247 245 248 247 249 246 237 235 236 235 235 237 238 227 220 223 235 241 247 253 256 258 261 269 289 259 253 246 246
254 254 252 252 254 255 258 258 249 243 242 244 246 243 240 242 245 253 251 248 243 246 240 244 244 241 240 241 246 241 229 229 234 242 245 249 255 263 275 276 266 273 275 258 254
254 253 251 252 255 253 253 255 254 246 244 243 245 242 242 244 250 254 256 251 249 244 245 239 242 250 245 243 245 250 245 242 243 243 246 255 257 264 268 267 266 276 283 272 257
253 255 258 259 254 252 251 252 256 254 251 245 244 244 244 246 250 249 249 252 250 246 242 240 234 240 246 245 245 250 252 249 244 246 249 259 259 265 266 266 267 277 264 268 254
258 257 259 261 255 252 251 256 257 256 252 252 252 249 246 249 247 246 247 248 251 252 250 245 235 238 239 241 239 245 251 255 255 258 259 259 259 261 265 266 272 275 251 258 256
257 258 259 258 259 258 257 252 250 252 250 253 254 254 253 254 254 253 251 245 249 255 255 251 248 243 240 239 238 238 240 244 249 254 255 257 257 262 265 268 274 262 248 262 267
264 264 264 266 269 269 265 262 262 260 260 252 253 255 252 252 255 252 250 253 250 248 253 253 248 242 244 244 242 241 241 241 244 249 254 259 258 259 262 264 262 260 254 258 263
265 267 267 267 266 266 266 265 264 263 262 262 256 254 257 255 256 253 253 250 251 253 250 251 246 243 239 241 243 245 247 250 251 249 252 254 254 256 258 263 266 255 254 259 259
280 278 283 280 280 276 277 276 275 273 267 259 257 256 253 253 255 255 256 251 247 246 248 250 249 246 242 242 248 250 249 248 248 251 254 254 257 253 256 258 260 259 262 261 259
283 287 290 287 286 284 281 278 276 275 273 264 264 265 261 260 257 251 252 253 250 249 250 250 249 250 249 245 246 246 244 244 241 244 248 251 254 256 253 256 255 257 262 262 269
289 291 288 286 286 284 283 280 279 275 268 267 267 268 270 265 263 263 257 254 253 252 254 252 253 251 251 250 247 248 244 245 243 243 247 248 250 255 255 256 258 259 263 265 263
311 311 303 299 297 295 290 285 283 277 276 276 277 275 270 270 276 277 272 263 258 262 266 259 250 250 251 249 246 245 246 244 245 244 251 247 252 258 259 256 256 258 263 265 268
326 320 309 306 304 302 299 296 295 308 303 297 290 288 285 281 279 274 275 274 274 275 272 259 240 250 258 263 252 240 241 244 244 244 250 249 255 257 259 262 261 263 265 266 269
329 329 326 326 324 319 310 313 310 311 302 297 292 285 283 283 279 275 277 273 274 273 276 278 269 259 261 261 262 256 242 240 246 251 252 251 253 260 263 263 263 265 269 270 269
2 4 4 353 346 338 334 329 322 315 305 298 281 273 275 274 270 271 267 265 265 266 264 278 278 273 273 271 266 260 258 250 247 251 252 258 259 261 262 265 268 268 266 265 260
18 12 3 353 349 342 332 326 318 309 302 296 290 283 276 269 265 262 261 262 264 265 266 269 270 270 268 264 264 264 260 254 250 256 257 256 259 261 262 265 267 266 266 261 261
4 352 346 343 339 335 330 324 318 310 304 301 298 296 292 286 280 278 276 271 269 265 261 265 267 267 266 265 262 260 265 259 255 257 261 255 260 263 263 265 266 264 264 265 261
346 347 346 341 340 338 336 333 326 316 303 292 290 290 289 292 292 294 290 286 280 275 270 264 264 267 268 266 261 258 261 262 262 265 254 255 268 259 258 263 263 260 255 256 266
340 343 343 343 341 342 340 335 325 316 307 298 293 296 289 290 295 294 294 293 290 273 268 269 270 270 264 267 269 266 263 263 268 273 267 267 265 273 265 267 257 257 263 250 247
342 339 340 341 343 342 340 334 323 313 307 304 302 297 298 301 302 303 298 294 285 274 268 263 256 259 263 266 268 269 269 266 265 266 266 262 263 270 275 274 275 272 262 278 271
338 339 338 342 343 344 344 340 332 326 314 309 310 316 321 322 322 324 326 316 302 279 267 261 260 254 259 263 262 270 268 265 267 266 268 267 266 267 269 270 272 277 281 278 272
335 336 339 343 343 345 347 344 338 335 331 330 334 335 330 323 321 318 318 312 308 300 283 268 259 255 255 253 255 260 261 268 268 266 266 264 268 272 267 267 268 270 273 271 268
Height
5872 5871 5870 5869 5869 5870 5870 5871 5871 5871 5870 5871 5873 5875 5876 5877 5877 5877 5878 5878 5876 5875 5876 5878 5879 5880 5882 5884 5883 5885 5889 5890 5892 5895 5897 5898 5900 5902 5900 5898 5896 5896 5898 5899 5901
5866 5865 5864 5862 5863 5865 5866 5867 5868 5867 5867 5868 5870 5872 5873 5873 5874 5874 5875 5874 5873 5872 5874 5874 5876 5877 5879 5879 5880 5882 5886 5888 5891 5891 5894 5895 5896 5900 5900 5896 5894 5895 5897 5898 5900
5861 5860 5860 5859 5860 5861 5862 5863 5864 5864 5864 5865 5867 5868 5869 5870 5871 5871 5871 5871 5870 5869 5870 5871 5872 5874 5876 5875 5876 5879 5884 5886 5887 5887 5889 5891 5893 5898 5898 5896 5895 5895 5895 5897 5899
5856 5857 5857 5857 5858 5858 5859 5860 5860 5860 5860 5862 5863 5864 5865 5867 5868 5867 5868 5868 5867 5867 5867 5868 5868 5870 5871 5872 5873 5876 5879 5881 5884 5884 5885 5888 5889 5893 5895 5897 5896 5894 5895 5896 5898
5853 5853 5854 5854 5854 5855 5856 5856 5856 5857 5857 5859 5859 5861 5862 5863 5864 5864 5864 5865 5865 5864 5865 5864 5865 5866 5867 5868 5869 5871 5874 5877 5879 5880 5881 5883 5886 5888 5892 5894 5894 5894 5894 5894 5895
5850 5850 5851 5851 5851 5852 5853 5853 5853 5854 5855 5856 5856 5857 5859 5861 5860 5859 5860 5861 5861 5861 5861 5861 5861 5862 5863 5863 5864 5866 5869 5872 5873 5874 5878 5879 5880 5883 5887 5890 5891 5891 5891 5891 5891
5847 5847 5848 5848 5848 5848 5849 5850 5850 5851 5852 5852 5853 5853 5855 5856 5854 5855 5857 5857 5858 5858 5858 5858 5859 5859 5860 5860 5860 5862 5866 5869 5870 5871 5872 5874 5876 5880 5884 5885 5886 5885 5885 5886 5885
5845 5845 5845 5844 5844 5844 5846 5847 5847 5848 5848 5848 5849 5849 5850 5849 5850 5852 5853 5853 5853 5853 5855 5854 5856 5857 5856 5857 5857 5857 5862 5865 5867 5867 5868 5868 5873 5877 5879 5881 5880 5879 5880 5880 5881
5842 5842 5842 5841 5841 5842 5842 5843 5845 5845 5845 5845 5845 5845 5847 5847 5847 5847 5847 5849 5849 5849 5850 5851 5852 5853 5853 5854 5855 5854 5855 5857 5860 5862 5863 5865 5869 5870 5873 5874 5873 5874 5874 5875 5875
5839 5838 5838 5838 5838 5839 5839 5842 5842 5841 5840 5840 5841 5842 5843 5843 5842 5841 5843 5843 5843 5844 5846 5847 5848 5849 5849 5849 5851 5851 5850 5852 5855 5858 5858 5860 5863 5863 5865 5866 5866 5868 5869 5868 5870
5836 5836 5835 5835 5835 5836 5838 5838 5839 5838 5836 5837 5837 5836 5838 5837 5837 5838 5838 5838 5839 5839 5840 5841 5844 5846 5845 5843 5843 5844 5844 5846 5849 5849 5851 5854 5855 5856 5856 5859 5861 5862 5863 5863 5864
5833 5832 5832 5832 5832 5833 5833 5833 5833 5833 5831 5831 5832 5832 5833 5832 5832 5832 5833 5834 5833 5833 5833 5836 5839 5840 5838 5837 5837 5836 5837 5840 5842 5843 5843 5846 5848 5848 5850 5852 5854 5856 5858 5857 5857
5828 5828 5827 5828 5828 5828 5828 5828 5827 5828 5827 5826 5827 5827 5828 5828 5826 5827 5828 5828 5828 5828 5827 5827 5834 5831 5831 5829 5830 5831 5831 5833 5836 5837 5834 5837 5837 5840 5843 5845 5847 5849 5851 5852 5851
5824 5824 5823 5824 5824 5823 5823 5822 5821 5822 5821 5821 5819 5820 5821 5821 5820 5820 5819 5822 5822 5821 5819 5822 5825 5823 5824 5824 5826 5827 5827 5828 5827 5826 5826 5827 5823 5830 5834 5836 5840 5843 5843 5845 5845
5821 5821 5820 5819 5819 5819 5819 5817 5816 5817 5817 5816 5816 5815 5815 5817 5815 5814 5813 5813 5814 5812 5812 5816 5818 5815 5814 5818 5817 5819 5821 5819 5818 5816 5816 5815 5813 5820 5825 5827 5832 5834 5836 5836 5836
5818 5818 5816 5815 5815 5814 5814 5812 5812 5814 5811 5810 5811 5811 5811 5810 5809 5808 5809 5808 5807 5806 5805 5812 5810 5808 5808 5809 5809 5809 5811 5810 5810 5809 5804 5809 5807 5808 5815 5822 5825 5825 5827 5828 5827
5816 5815 5814 5813 5812 5811 5809 5809 5809 5807 5808 5807 5805 5805 5806 5805 5803 5804 5804 5804 5803 5800 5801 5802 5802 5800 5798 5799 5800 5800 5801 5802 5800 5800 5798 5804 5800 5799 5808 5812 5816 5818 5819 5819 5819
5814 5813 5812 5811 5809 5808 5807 5806 5805 5806 5804 5804 5802 5800 5800 5800 5799 5799 5798 5796 5795 5793 5792 5793 5796 5794 5794 5792 5794 5793 5793 5793 5790 5792 5792 5793 5787 5793 5799 5801 5805 5807 5809 5809 5810
5813 5812 5810 5809 5807 5805 5804 5803 5801 5801 5800 5800 5798 5796 5793 5793 5792 5792 5791 5789 5787 5786 5784 5781 5784 5788 5786 5786 5787 5787 5785 5784 5782 5781 5781 5782 5783 5784 5787 5790 5793 5796 5799 5798 5800
5813 5811 5810 5808 5806 5804 5802 5800 5798 5796 5794 5793 5792 5790 5786 5785 5784 5782 5782 5779 5779 5776 5773 5771 5768 5774 5776 5775 5774 5774 5775 5775 5774 5772 5771 5770 5772 5775 5778 5780 5782 5785 5787 5788 5788
5813 5811 5809 5806 5804 5802 5800 5797 5794 5791 5789 5786 5783 5781 5779 5776 5773 5771 5769 5769 5766 5765 5763 5761 5758 5760 5761 5763 5763 5763 5761 5762 5764 5763 5761 5761 5764 5764 5767 5769 5771 5773 5775 5776 5776
5812 5810 5808 5805 5804 5801 5798 5794 5791 5786 5780 5776 5773 5769 5767 5764 5762 5760 5758 5757 5754 5751 5750 5747 5743 5743 5746 5748 5750 5749 5748 5749 5749 5751 5749 5752 5754 5754 5755 5757 5760 5761 5762 5762 5762
5812 5810 5807 5805 5801 5797 5792 5788 5783 5778 5774 5770 5765 5761 5757 5753 5750 5747 5744 5742 5738 5737 5736 5736 5734 5731 5730 5733 5734 5735 5736 5736 5737 5738 5737 5740 5742 5742 5747 5747 5745 5746 5747 5747 5747
5811 5808 5805 5801 5797 5792 5787 5782 5775 5769 5763 5759 5756 5752 5748 5745 5739 5734 5729 5725 5723 5720 5720 5721 5720 5721 5720 5718 5719 5722 5724 5725 5723 5724 5727 5731 5733 5734 5732 5731 5731 5734 5737 5735 5735
5808 5804 5800 5796 5792 5787 5782 5774 5766 5760 5754 5750 5746 5742 5738 5732 5725 5718 5711 5706 5704 5700 5699 5701 5707 5703 5703 5705 5708 5710 5712 5714 5715 5714 5715 5719 5721 5721 5721 5719 5721 5722 5720 5721 5721
5806 5802 5798 5793 5787 5781 5774 5766 5758 5752 5748 5743 5740 5734 5727 5719 5712 5705 5699 5693 5688 5689 5683 5683 5685 5689 5692 5696 5698 5696 5700 5702 5703 5704 5705 5706 5708 5708 5709 5710 5710 5711 5711 5711 5711
5803 5799 5795 5790 5783 5777 5770 5763 5756 5748 5742 5737 5732 5726 5720 5714 5707 5701 5694 5688 5683 5680 5678 5675 5673 5673 5679 5682 5683 5686 5690 5690 5692 5694 5692 5694 5695 5696 5698 5699 5700 5700 5700 5700 5701